Location: Julian California
(33.0790°N, 116.6010°W)
Time: 06:58:42
(UTC-07:00)

Cosmos 2297 Rocket - Pass Details

Date: 12 July 2018
Orbit: 841 x 842 km, 71.0° (Epoch: 22 July)

Event Time Altitude Azimuth Distance (km) Brightness Sun altitude
Rises 22:51:35 0° 353° (N) 3,397 6.3 -28.0°
Reaches altitude 10° 22:54:29 10° 6° (N) 2,459 5.2 -28.3°
Enters shadow 22:58:53 25° 58° (ENE) 1,647 3.7 -28.8°
